When you browse on this site, cookies collect data to enhance your experience and personalize the content and advertising you see.
Visit our Privacy Policy to learn more. By continuing to use the site, you agree to this use of cookies and data.
  • în România
  • Lista ţărilor
  • Pe 7 zile
  • Temperatura apei
  • Meteo pe hartă
  • Widget-uri
  • user-avatar
    Intrare

    Meteo pe oră la Oslo

    Astăzi, 17 Ianuarie, Vineri

    Timp Temperatura Precipitaţii Vânt Presiune Umiditate
    00:00 +3°C° 0 mm 3 m/s 753 mmHg 93%
    01:00 +3°C° 0 mm 3 m/s 753 mmHg 94%
    02:00 +3°C° 0.1 mm 4 m/s 752 mmHg 93%
    03:00 +3°C° 0.1 mm 4 m/s 751 mmHg 92%
    04:00 +3°C° 0.1 mm 4 m/s 751 mmHg 92%
    05:00 +3°C° 0.3 mm 4 m/s 750 mmHg 92%
    06:00 +4°C° 0.3 mm 4 m/s 750 mmHg 93%
    07:00 +4°C° 0 mm 4 m/s 749 mmHg 92%
    08:00 +4°C° 0.4 mm 4 m/s 749 mmHg 93%
    09:00 +5°C° 0.4 mm 4 m/s 749 mmHg 94%
    10:00 +5°C° 0.4 mm 4 m/s 748 mmHg 95%
    11:00 +5°C° 0.5 mm 4 m/s 748 mmHg 95%
    12:00 +5°C° 0.5 mm 4 m/s 748 mmHg 95%
    13:00 +5°C° 0.5 mm 3 m/s 748 mmHg 95%
    14:00 +5°C° 1 mm 3 m/s 748 mmHg 96%
    15:00 +5°C° 1 mm 3 m/s 747 mmHg 96%
    16:00 +4°C° 1 mm 3 m/s 746 mmHg 96%
    17:00 +4°C° 0.5 mm 3 m/s 746 mmHg 96%
    18:00 +4°C° 0.5 mm 3 m/s 746 mmHg 96%
    19:00 +5°C° 0.5 mm 3 m/s 746 mmHg 96%
    20:00 +4°C° 0.1 mm 3 m/s 746 mmHg 96%
    21:00 +5°C° 0.1 mm 2 m/s 746 mmHg 96%
    22:00 +5°C° 0.1 mm 2 m/s 745 mmHg 96%
    23:00 +5°C° 0 mm 2 m/s 745 mmHg 96%

    Mâine, 18 Ianuarie, Sâmbătă

    Timp Temperatura Precipitaţii Vânt Presiune Umiditate
    00:00 +5°C° 0 mm 2 m/s 745 mmHg 97%
    01:00 +5°C° 0 mm 1 m/s 745 mmHg 97%
    02:00 +5°C° 0 mm 1 m/s 744 mmHg 97%
    03:00 +5°C° 0 mm 1 m/s 744 mmHg 97%
    04:00 +5°C° 0 mm 1 m/s 744 mmHg 97%
    05:00 +5°C° 0 mm 1 m/s 744 mmHg 97%
    06:00 +5°C° 0 mm 1 m/s 744 mmHg 97%
    07:00 +5°C° 0 mm 1 m/s 744 mmHg 98%
    08:00 +5°C° 0.3 mm 1 m/s 743 mmHg 97%
    09:00 +5°C° 0.3 mm 1 m/s 743 mmHg 97%
    10:00 +5°C° 0.3 mm 1 m/s 743 mmHg 97%
    11:00 +5°C° 0.4 mm 1 m/s 743 mmHg 97%
    12:00 +5°C° 0.4 mm 1 m/s 743 mmHg 96%
    13:00 +5°C° 0.4 mm 1 m/s 743 mmHg 96%
    14:00 +5°C° 0.3 mm 1 m/s 743 mmHg 95%
    15:00 +4°C° 0.3 mm 1 m/s 743 mmHg 95%
    16:00 +4°C° 0.3 mm 1 m/s 743 mmHg 95%
    17:00 +3°C° 0 mm 1 m/s 744 mmHg 94%
    18:00 +3°C° 0 mm 1 m/s 745 mmHg 93%
    19:00 +2°C° 0 mm 1 m/s 746 mmHg 92%
    20:00 +2°C° 0 mm 1 m/s 746 mmHg 88%
    21:00 +2°C° 0 mm 1 m/s 747 mmHg 83%
    22:00 +2°C° 0 mm 1 m/s 748 mmHg 79%
    23:00 +2°C° 0 mm 1 m/s 749 mmHg 78%

    Poimâine, 19 Ianuarie, Duminică

    Timp Temperatura Precipitaţii Vânt Presiune Umiditate
    00:00 +2°C° 0 mm 1 m/s 751 mmHg 76%
    01:00 +1°C° 0 mm 1 m/s 752 mmHg 74%
    02:00 +1°C° 0 mm 1 m/s 753 mmHg 73%
    03:00 +1°C° 0 mm 1 m/s 754 mmHg 72%
    04:00 +1°C° 0 mm 1 m/s 755 mmHg 71%
    05:00 +1°C° 0 mm 1 m/s 757 mmHg 71%
    06:00 +1°C° 0 mm 1 m/s 758 mmHg 70%
    07:00 +1°C° 0 mm 1 m/s 759 mmHg 69%
    08:00 +1°C° 0 mm 1 m/s 760 mmHg 68%
    09:00 +1°C° 0 mm 1 m/s 761 mmHg 67%
    10:00 +1°C° 0 mm 1 m/s 763 mmHg 66%
    11:00 +2°C° 0 mm 1 m/s 764 mmHg 64%
    12:00 +2°C° 0 mm 1 m/s 765 mmHg 61%
    13:00 +2°C° 0 mm 2 m/s 766 mmHg 58%
    14:00 +2°C° 0 mm 1 m/s 766 mmHg 62%
    15:00 +1°C° 0 mm 1 m/s 767 mmHg 65%
    16:00 0°C° 0 mm 1 m/s 767 mmHg 68%
    17:00 0°C° 0 mm 1 m/s 768 mmHg 68%
    18:00 0°C° 0 mm 1 m/s 768 mmHg 69%
    19:00 0°C° 0 mm 1 m/s 769 mmHg 70%
    20:00 0°C° 0 mm 1 m/s 769 mmHg 69%
    21:00 -1°C° 0 mm 0 m/s 769 mmHg 69%
    22:00 -1°C° 0 mm 0 m/s 769 mmHg 68%
    23:00 -1°C° 0 mm 0 m/s 769 mmHg 68%

    20 Ianuarie, Luni

    Timp Temperatura Precipitaţii Vânt Presiune Umiditate
    00:00 -1°C° 0 mm 0 m/s 769 mmHg 68%
    01:00 -2°C° 0 mm 0 m/s 769 mmHg 68%
    02:00 -1°C° 0 mm 0 m/s 769 mmHg 69%
    03:00 0°C° 0 mm 1 m/s 768 mmHg 71%
    04:00 0°C° 0 mm 1 m/s 768 mmHg 73%
    05:00 0°C° 0 mm 1 m/s 768 mmHg 74%
    06:00 -1°C° 0 mm 0 m/s 768 mmHg 75%
    07:00 -1°C° 0 mm 0 m/s 768 mmHg 76%
    08:00 0°C° 0 mm 0 m/s 768 mmHg 76%
    09:00 0°C° 0 mm 0 m/s 768 mmHg 75%
    10:00 0°C° 0 mm 0 m/s 768 mmHg 75%
    11:00 +1°C° 0 mm 0 m/s 767 mmHg 74%
    12:00 +1°C° 0 mm 0 m/s 767 mmHg 73%
    13:00 +2°C° 0 mm 0 m/s 767 mmHg 71%
    14:00 +3°C° 0 mm 1 m/s 767 mmHg 74%
    15:00 +3°C° 0 mm 1 m/s 766 mmHg 77%
    16:00 +2°C° 0 mm 1 m/s 766 mmHg 79%
    17:00 +3°C° 0 mm 1 m/s 766 mmHg 80%
    18:00 +3°C° 0 mm 1 m/s 765 mmHg 81%
    19:00 +3°C° 0 mm 1 m/s 765 mmHg 82%
    20:00 +2°C° 0 mm 2 m/s 764 mmHg 83%
    21:00 +3°C° 0 mm 2 m/s 764 mmHg 84%
    22:00 +3°C° 0 mm 2 m/s 764 mmHg 85%
    23:00 +3°C° 0 mm 2 m/s 763 mmHg 85%

    21 Ianuarie, Marţi

    Timp Temperatura Precipitaţii Vânt Presiune Umiditate
    00:00 +3°C° 0 mm 2 m/s 763 mmHg 85%
    01:00 +4°C° 0 mm 2 m/s 762 mmHg 86%
    02:00 +4°C° 0 mm 2 m/s 762 mmHg 85%
    03:00 +4°C° 0 mm 2 m/s 762 mmHg 85%
    04:00 +4°C° 0 mm 2 m/s 761 mmHg 84%
    05:00 +4°C° 0 mm 2 m/s 761 mmHg 83%
    06:00 +4°C° 0 mm 2 m/s 760 mmHg 82%
    07:00 +3°C° 0 mm 3 m/s 760 mmHg 82%
    08:00 +3°C° 0 mm 3 m/s 759 mmHg 82%
    09:00 +3°C° 0 mm 3 m/s 759 mmHg 83%
    10:00 +3°C° 0 mm 3 m/s 759 mmHg 84%
    11:00 +3°C° 0 mm 3 m/s 758 mmHg 84%
    12:00 +4°C° 0 mm 3 m/s 758 mmHg 84%
    13:00 +4°C° 0 mm 3 m/s 758 mmHg 84%
    14:00 +4°C° 0 mm 3 m/s 758 mmHg 83%
    15:00 +4°C° 0 mm 3 m/s 758 mmHg 82%
    16:00 +4°C° 0 mm 3 m/s 759 mmHg 81%
    17:00 +4°C° 0 mm 2 m/s 759 mmHg 79%
    18:00 +3°C° 0 mm 2 m/s 760 mmHg 78%
    19:00 +3°C° 0 mm 1 m/s 760 mmHg 76%
    20:00 +3°C° 0 mm 1 m/s 760 mmHg 75%
    21:00 +2°C° 0 mm 1 m/s 761 mmHg 74%
    22:00 +2°C° 0 mm 1 m/s 761 mmHg 73%
    23:00 +2°C° 0 mm 1 m/s 762 mmHg 73%

    22 Ianuarie, Miercuri

    Timp Temperatura Precipitaţii Vânt Presiune Umiditate
    00:00 +2°C° 0 mm 1 m/s 762 mmHg 73%
    01:00 +1°C° 0 mm 1 m/s 762 mmHg 73%
    02:00 +1°C° 0 mm 1 m/s 762 mmHg 72%
    03:00 +1°C° 0 mm 1 m/s 762 mmHg 71%
    04:00 +1°C° 0 mm 1 m/s 762 mmHg 71%
    05:00 +1°C° 0 mm 1 m/s 761 mmHg 71%
    06:00 +1°C° 0 mm 1 m/s 761 mmHg 72%
    07:00 0°C° 0 mm 1 m/s 761 mmHg 72%
    08:00 0°C° 0 mm 1 m/s 761 mmHg 72%
    09:00 0°C° 0 mm 1 m/s 761 mmHg 71%
    10:00 +1°C° 0 mm 1 m/s 762 mmHg 71%
    11:00 +1°C° 0 mm 1 m/s 761 mmHg 70%
    12:00 +1°C° 0 mm 1 m/s 761 mmHg 69%
    13:00 +1°C° 0 mm 0 m/s 761 mmHg 68%
    14:00 0°C° 0 mm 0 m/s 760 mmHg 70%
    15:00 0°C° 0 mm 0 m/s 760 mmHg 71%
    16:00 0°C° 0 mm 0 m/s 760 mmHg 73%
    17:00 0°C° 0 mm 0 m/s 759 mmHg 73%
    18:00 0°C° 0 mm 0 m/s 759 mmHg 74%
    19:00 0°C° 0 mm 0 m/s 759 mmHg 75%
    20:00 0°C° 0 mm 0 m/s 758 mmHg 76%
    21:00 0°C° 0 mm 0 m/s 757 mmHg 78%
    22:00 -1°C° 0 mm 0 m/s 756 mmHg 79%
    23:00 -1°C° 0 mm 0 m/s 755 mmHg 80%
    Arată mai mult